Location: Gowrie
(35.4119°S, 149.1090°E)
Time: 02:19:13
(UTC+11:00)

ISS - Visible Passes

Search period start: 24 October 2017 00:00
Search period end: 03 November 2017 00:00
Orbit: 400 x 408 km, 51.6° (Epoch: 24 October)

Date Brightness Start Highest point End Pass type
(mag) Time Alt. Az. Time Alt. Az. Time Alt. Az.
24 Oct -0.9 03:39:17 16° E 03:39:17 16° E 03:40:09 10° E visible
24 Oct -2.8 05:12:04 18° W 05:13:41 26° NW 05:16:29 10° N visible
24 Oct -3.3 20:11:40 10° NNW 20:14:47 39° NE 20:17:58 10° ESE visible
24 Oct -1.2 21:48:47 10° W 21:51:23 20° SSW 21:51:55 20° SSW visible
25 Oct -1.3 04:24:18 13° NNE 04:24:18 13° NNE 04:24:42 10° NE visible
25 Oct -2.1 20:55:46 10° WNW 20:58:53 35° SW 21:02:00 10° SSE visible
26 Oct -3.5 20:03:07 10° NW 20:06:27 71° SW 20:09:49 10° SE visible
26 Oct -0.5 21:42:09 10° SW 21:43:27 12° SSW 21:44:44 10° S visible
27 Oct -0.8 20:48:26 10° WSW 20:50:47 18° SSW 20:53:09 10° SSE visible
28 Oct -1.6 19:55:15 10° W 19:58:12 29° SW 20:01:12 10° SSE visible
29 Oct -0.4 20:42:16 10° SSW 20:42:49 10° SSW 20:43:21 10° SSW visible
